Other Public Products
Issued by NWS Grand Forks, ND

Home | Current Version | Previous Version | Graphics & Text | Print | Product List | Glossary On
Versions: 1 2 3 4 5 6 7 8 9 10 11 12 13 14 15 16 17 18 19 20 21 22 23 24 25 26 27 28 29 30 31 32 33 34 35 36 37 38 39 40 41 42 43 44 45 46 47 48 49 50
000
FPUS83 KFGF 192031
OPUFGF
PRAIRIE TO PINES WEATHER ROUNDUP
NATIONAL WEATHER SERVICE EASTERN NORTH DAKOTA/GRAND FORKS ND
300 PM CDT SAT APR 19 2014

 **SATELLITE DATA USED TO AUGMENT SKY COVER AT AUTOMATED STATIONS**
 *****  WEATHER ACROSS EASTERN NORTH DAKOTA  *****

CITY           SKY/WX    TMP DP  RH WIND       PRES   REMARKS
GRAND FORKS    MOSUNNY   62  39  42 W22       29.84S
GRAND FORKS AF SUNNY     61  37  40 W22G28    29.85R
GRAND CITY NWS   N/A     63 N/A N/A W24         N/A
BUXTON           N/A     64  43  46 W17         N/A
DEVILS LAKE    CLOUDY    54  37  54 W26G32    29.87R
FARGO          MOSUNNY   68  29  23 W22       29.89R
WAHPETON ARPT  PTCLDY    68  23  18 W20G25    29.93R
$$

 *****  WEATHER ACROSS CENTRAL AND WESTERN NORTH DAKOTA  *****

CITY           SKY/WX    TMP DP  RH WIND       PRES   REMARKS
JAMESTOWN      SUNNY     65  31  28 NW22      29.88S
BISMARCK       SUNNY     66  27  23 W22G28    29.92S
MINOT          CLOUDY    49  34  56 W16G26    29.90R
MINOT AFB      CLOUDY    47  35  63 W18       29.90R
GARRISON         N/A     51  36  56 NW16G29   29.93R
WILLISTON      CLOUDY    56  33  42 W17G28    29.93R
DICKINSON      SUNNY     59  32  36 NW21G29   29.93R
HETTINGER      SUNNY     62  29  28 W20G28    29.97S
$$

 *****  OTHER OBSERVATIONS NORTHEAST NORTH DAKOTA  *****

CITY           SKY/WX    TMP DP  RH WIND       PRES   REMARKS
WALHALLA         N/A     54  37  54 W22G30    29.80R
LANGDON        MOCLDY    52  37  58 W32G40    29.81R
CAVALIER       CLOUDY    54  39  58 W21G30    29.81R
GRAFTON        MOCLDY    55  39  54 W26G33    29.83R
CANDO          CLOUDY    50  37  62 W24       29.86R
FORT TOTTEN      N/A     55  37  50 W13       29.95S
ROLLA          MOCLDY    46  37  71 W18G29    29.84R
RUGBY          FAIR      48  37  66 W28G35    29.87R
 ***** THE ABOVE OBSERVATIONS ARE NON NWS ARE NOT QUALITY
        CONTROLLED AND MAY MIS-REPORT RAIN FOR SNOW...
$$

 *****  OTHER OBSERVATIONS SOUTHEAST NORTH DAKOTA *****

CITY           SKY/WX    TMP DP  RH WIND       PRES   REMARKS
COOPERSTOWN    FAIR      59  37  44 W24G30    29.87R
VALLEY CITY    FAIR      64  32  29 W20G26    29.90R
OAKES          FAIR      66  32  28 SW17      29.93S
GWINNER        CLEAR     66  32  28 W18G29    29.94S
SHEYENNE NWR     N/A     68  31  25 W13       29.95
BUFFALO          N/A     65  30  27 W17         N/A
WYNDMERE       NOT AVBL
 ***** THE ABOVE OBSERVATIONS ARE NON NWS ARE NOT QUALITY
       CONTROLLED AND MAY MIS-REPORT RAIN FOR SNOW...
$$

  *****  WEATHER ACROSS NORTHERN MINNESOTA  *****

CITY           SKY/WX    TMP DP  RH WIND       PRES   REMARKS
FLAG ISLAND    PTSUNNY   52  34  50 SW29G36   29.74R
WARROAD        SUNNY     57  39  51 SW23G30   29.79S
ROSEAU         MOSUNNY   59  41  51 SW22G35   29.80R
HALLOCK        CLOUDY    55  43  62 W25       29.81R
THF RVR FALLS  SUNNY     59  37  44 W23       29.86R
HALSTAD          N/A     65  32  29 W15G30      N/A
FOSSTON        MOSUNNY   63  30  29 SW25G31   29.87S
BAUDETTE       MOSUNNY   59  36  42 W14G31    29.79S
WASKISH        MOSUNNY   61  36  39 SW16      29.84S
CROOKSTON      SUNNY     63  37  39 W21G26    29.86S
$$
  *****  WEATHER ACROSS CENTRAL AND WEST MINNESOTA  *****

CITY           SKY/WX    TMP DP  RH WIND       PRES   REMARKS
BEMIDJI        PTSUNNY   62  29  28 SW15G26   29.87R
PARK RAPIDS    PTSUNNY   64  28  25 W16G30    29.89S
WADENA         MOSUNNY   64  36  34 W16G22    29.92R
DETROIT LAKES  PTSUNNY   63  28  27 W14G20    29.92S
MOORHEAD       MOSUNNY   66  19  16 W21       29.90S
FERGUS FALLS   MOSUNNY   66  23  19 W16       29.89S
ELBOW LAKE     FAIR      68  31  24 W20       29.95R
MORRIS MN      MOSUNNY   66  36  32 W12       29.95S
STAPLES        MOSUNNY   66  30  26 W15G21    29.93R
WHEATON        MOSUNNY   72  36  26 SW14      29.96S
$$
  *****  WEATHER ELSEWHERE ACROSS MINNESOTA  *****

CITY           SKY/WX    TMP DP  RH WIND       PRES   REMARKS
DULUTH         CLOUDY    37  30  75 SE10      30.01F
INTRNTL FALLS  PTSUNNY   51  37  58 S9G20     29.85F
ELY            CLOUDY    37  30  75 S10G18    29.98F
CLOQUET        CLOUDY    43  30  61 SE8       30.00S
BRAINERD       MOSUNNY   65  43  44 S15G26    29.95S
HIBBING        CLOUDY    49  33  54 S14G24    29.95S
ALEXANDRIA     MOSUNNY   63  39  41 SW9       29.95S
SAINT CLOUD    LGT RAIN  57  44  62 S8        29.97F
MINNEAPOLIS    CLOUDY    66  43  43 S14G23    30.00F
$$

  *****  WEATHER ACROSS SOUTH DAKOTA  *****

CITY           SKY/WX    TMP DP  RH WIND       PRES   REMARKS
SIOUX FALLS    CLOUDY    67  42  40 N8        29.99R
BROOKINGS      NOT AVBL
WATERTOWN      MOSUNNY   64  27  24 W14G22    29.99S
HURON          MOSUNNY   68  24  19 W8        29.99F
SISSETON         N/A     68  27  21 W15       29.94R
ABERDEEN       SUNNY     68  24  19 W14       29.96S
MITCHELL       CLOUDY    68  31  25 N10       30.00S
PIERRE         MOSUNNY   67  22  18 SW8G18    29.99F
MOBRIDGE       SUNNY     66  26  22 NW14      29.93S
RAPID CITY     MOSUNNY   61  23  23 SE12      30.02F
$$

  *****  SOME WEATHER IN NEARBY STATES *****

CITY           SKY/WX    TMP DP  RH WIND       PRES   REMARKS
GLASGOW MT     SUNNY     56  35  45 W12       29.92F
GREAT FALLS MT SUNNY     59  15  18 SW13G26   29.87F
CHEYENNE WY    CLOUDY    58  38  47 S10       30.08S
SCOTTSBLUFF NE CLOUDY    62  31  31 SE10G17   30.05S
OMAHA NE       CLOUDY    78  43  28 S22       29.99F
DES MOINES IA  CLOUDY    77  44  30 S21G28    30.08F
DAVENPORT IA   PTSUNNY   72  35  25 S10G22    30.22F
CHICAGO IL     PTSUNNY   63  36  36 SE9       30.29F
EAU CLAIRE WI  CLOUDY    64  34  32 S17       30.08F
LA CROSSE WI   SUNNY     67  34  29 S16       30.12F
$$

  *****  SOME NATIONAL WEATHER *****

CITY           SKY/WX    TMP DP  RH WIND       PRES   REMARKS
LA GUARDIA NY  PTSUNNY   64  24  21 N6        30.22F
RALEIGH NC     CLOUDY    51  46  83 NE12      30.18S
ATLANTA GA     CLOUDY    61  54  77 NE22G29   30.09S
NEW ORLEANS LA MOSUNNY   75  53  46 NW9       30.12F
OKLAHOMA CITY  CLOUDY    75  48  38 S17       30.10S
ALBUQUERQUE NM CLOUDY    56  46  69 S16       30.13S
SALT LAKE CITY PTSUNNY   70  38  31 NW5       29.99F
LOS ANGELES CA PTSUNNY   66  53  63 W13G20    30.02F
BOISE ID       MOSUNNY   70  23  17 SE9       29.91F
SEATTLE WA     LGT RAIN  46  45  93 S8        29.89R FOG
$$

*** WEATHER ACROSS MANITOBA...SASKATCHEWAN AND ONTARIO ***
                ***ONTARIO***

CITY           SKY/WX    TMP DP  RH WIND       PRES   REMARKS
GERALDTON      HVY SNOW  30  28  93 SE14      30.24  VSB 1/4 WCI  20
THUNDER BAY    LGT RAIN  34  32  93 E12       30.14F FOG
SIOUX LOOKOUT  DRIZZLE   34  32  93 S15G25    29.91S FOG     WCI  24
TORONTO        MOSUNNY   50  32  50 SE8       30.41F
BIG TROUT LK   CLOUDY    41  18  38 SE14G24   30.03F
PICKLE LAKE    LGT SNOW  30  28  93 SE22G31   29.99F VSB 1   WCI  17
DRYDEN         CLOUDY    36  34  93 S17G24    29.84F
KENORA         PTSUNNY   46  37  71 S14G21    29.76S
$$
                *** MANITOBA***

CITY           SKY/WX    TMP DP  RH WIND       PRES   REMARKS
BRANDON        CLOUDY    41  36  81 W25       29.80R
DAUPHIN        CLOUDY    37  32  81 W22G29    29.73R
ISLAND LAKE    LGT SNOW  32  32 100 E10G25    29.76  DRFTSNOWWCI  24
PILOT MOUND      N/A     46  36  66 W14G24      N/A
THE PAS        LGT SNOW  32  32 100 N8        29.72S WCI  25
THOMPSON       LGT SNOW  32  32 100 E13G18    29.81  VSB 3/4 WCI  22
WINNIPEG       CLOUDY    48  41  76 W16G23    29.73R
LYNN LAKE      CLOUDY    37  14  38 E13G22    29.83S
CHURCHILL      PTSUNNY   30  21  69 E12       30.14F WCI  21
GILLAM         CLOUDY    41  18  38 E13G22    29.93F
$$
                ***SASKATCHEWAN***

CITY           SKY/WX    TMP DP  RH WIND       PRES   REMARKS
ESTEVAN        PTSUNNY   46  36  66 NW17G28   29.90R
KINDERSLEY     CLOUDY    43  32  65 W12       29.86R
LLOYDMINSTER   MOSUNNY   45  30  57 W10       29.80F
PRINCE ALBERT  CLOUDY    36  28  75 NW13      29.82R
REGINA         CLOUDY    39  34  81 W18G26    29.88R



USA.gov is the U.S. government's official web portal to all federal, state and local government web resources and services.